User: anonymous   Login
Location: Caltech
(34.1382°N, 118.1253°W)
Time: 20:05:06
(UTC-08:00)
Language:

Iridium 95 - Orbit

View from above orbital plane
View from above orbital plane
View from above satellite
View from above satellite

Ground track
Ground track

The orbit data is extracted from the following two-line orbital elements,

1 27375U 02005D   16038.35028375  .00000301  00000-0  10055-3 0  9990
2 27375  86.4013 134.8655 0002016  99.4822 260.6602 14.34217474739843
Epoch (UTC): 07 February 2016 08:24:24
Eccentricity: 0.0002016
inclination: 86.4013°
perigee height: 776 km
apogee height: 779 km
right ascension of ascending node: 134.8655°
argument of perigee: 99.4822°
revolutions per day: 14.34217474
mean anomaly at epoch: 260.6602°
orbit number at epoch: 73984

The dashed part of the orbit path shows where the satellite is in the earth's shadow,  

DLR